IRIDIUM 33 DEB

Satellite information

Favourite Embed

Satellite Type and Status

DEBRISIN ORBIT

Key statistics

Satellite IRIDIUM 33 DEB at a glance.

Uptime

10222

Days in orbit

Revolutions

≈ 14.5

Per day

Orbit

LEO

Low Earth Orbit

Inclination

86.4

Latest

Satellite identification and parameters

Extended collection of information and parameters for IRIDIUM 33 DEB.

Object identification

Identified? True

Debris? True

Object name: IRIDIUM 33 DEB

International designator: 1997-051RD

Object number (NORAD): 35631

Object ID (CCSDS): 35631

Country: UNITED STATES OF AMERICA (US)

Current information (Y/N): Y

RCS size: SMALL

Orbital parameters

Period: 99.518 minutes

Inclination: 86.3623 deg

SMA: 7113.691 km

Apoapsis: 749.167 km

Periapsis: 721.945 km

RAAN: 62.5058 deg

Eccentricy: 0.00191331

Argument of periapsis: 84.0972 deg

Mean anomaly: 96.1571 deg

Mean motion: 14.46972433 rev/day

Mean motion (dot): 0.00001218 rev/day2

B* drag term: 0.0003290908 1/REarth

Two-line elements (TLE)

Creation date: Sept. 7, 2025, 9:49 a.m.

Reference frame: TEME

Reference center: EARTH

Epoch: Sept. 7, 2025, 5:44 a.m. UTC

TLE line 0: 0 IRIDIUM 33 DEB

TLE line 1: 1 35631U 97051RD 25250.23930356 .00001218 00000-0 32909-3 0 9993

TLE line 2: 2 35631 86.3623 62.5058 0019133 84.0972 96.1571 14.46972433858015

Live tracking on map

Real-time ground track for satellite IRIDIUM 33 DEB.

In-orbit conjunctions

A list of the most updated potential collisions computed for object IRIDIUM 33 DEB.

Target Orbit TCA Probability of collision Miss distance Type
CZ-6A DEB SSO 2025-07-30 09:30:25 0.0002248452 33.0 (m) DEBRIS
CZ-6A DEB LEO 2025-03-04 20:30:02 0.0001093919 333.0 (m) DEBRIS
DMSP 5D-2 F13 DEB SSO 2024-12-11 17:27:12 0.0001194106 77.0 (m) DEBRIS

Associated space launch

Iridium provides global mobile telecommunications services using a constellation of 66 low earth orbit satellites in a 86.4° inclined orbit. Although 77 satellites were originally envisioned for the system and spawned the name based on the 77th element in the periodic table, the system has been scaled back. Motorola's Satellite Communications Group designed and manufactured the Iridium satellites with Lockheed Martin providing the LM-700A spacecraft buses.

IRIDIUM 33 DEB was lifted into orbit during the mission ‘Proton-K/17S40 | Iridium 27 to 33’, on board a Proton-K/17S40 space rocket.

The launch took place on Sept. 14, 1997, 1:36 a.m. from 81/23 (81L).

For more information about the launch, click the button.

Launch to space Proton-K/17S40 | Iridium 27 to 33
Proton-K/17S40 | Iridium 27 to 33

Agency: N/A

Status: Launch Successful

Launch date: Sept. 14, 1997, 1:36 a.m. UTC

Rocket: Proton-K/17S40

Launch pad: 81/23 (81L)

Location: Baikonur Cosmodrome, Republic of Kazakhstan

...

Latest news about this satellite

There are no fresh news available about this satellite. Check back as we update our databases every day.


Newsletter sign-up

Weekly statistics, charts and insights to help you stay on top of the space industry.